sat.trackr.live / text

‹ back to catalog

LEMUR-2-OBA-NI-JESU

NORAD 58902 · 2024-022D

PAYLOAD ACTIVE UNKNOWN

§ Identity

Operator
Country
US
Launch date
2024-01-31
Launch site
RLLB
Launch vehicle
Mass (kg)
RCS (m²)

Purposes: earth_obs

External: N2YO · Heavens-Above · Gunter

§ Orbital elements

Epoch: 2026-05-25T02:41:05.730432Z

Period
90.53 min
Inclination
97.3874°
Eccentricity
0.0005250
Mean motion
15.90640870 rev/d
Perigee alt
297.0 km
Apogee alt
304.0 km
Semi-major
6,678.6 km
B*
1.1818e-3
RAAN
8.2552°
Arg perigee
163.0940°
Mean anomaly
197.0509°
Rev number
12,963

§ Raw data

LEMUR-2-OBA-NI-JESU1 58902U 24022D   26145.11187188  .00362543  51108-4  11818-2 0  99902 58902  97.3874   8.2552 0005250 163.0940 197.0509 15.90640870129633

JSON: /api/v1/satellites/58902 · /tle

For live sub-satellite position, see the globe view (requires WebGL).

§ Visibility from observer

Set your observer location to see the next 7 days of passes ≥ 10°. The values pass through the URL so the page stays shareable.

No JS? Fill the form by hand. The geolocation button needs JavaScript.